Regional Weather Roundup
Issued by NWS Sterling, VA

Home | Current Version | Previous Version | Graphics & Text | Print | Product List | Glossary On
Versions: 1 2 3 4 5 6 7 8 9 10 11 12 13 14 15 16 17 18 19 20 21 22 23 24 25 26 27 28 29 30 31 32 33 34 35 36 37 38 39 40 41 42 43 44 45 46 47 48 49 50
000
ASUS41 KLWX 190411
RWRLWX

REGIONAL WEATHER ROUNDUP
NATIONAL WEATHER SERVICE BALTIMORE MD/WASHINGTON DC
1100 PM EST THU JAN 18 2018

Note: "FAIR" indicates few or no clouds below 12,000 feet
with no significant weather and/or obstructions to visibility.
 TC=TEMPERATURE CELSIUS

 * =Non NWS site. Station does not report precipitation (e.g. rain,
    snow, etc.), thunder, or fog.

DCZ001-MDZ009-015-VAZ040>042-051-053>054-190500-
WASHINGTON METRO

CITY           SKY/WX    TMP DP  RH WIND       PRES   REMARKS
WASHINGTON NAT FAIR      38   6  26 CALM      30.14R
DULLES         FAIR      26   8  46 CALM      30.12R
ANDREWS AFB    FAIR      28  12  50 CALM      30.11S
FT BELVOIR     FAIR      23  13  66 CALM      30.14R
COLLEGE PARK*  FAIR      25  15  67 CALM      30.12S
LEESBURG*      FAIR      34  12  40 NW6       30.12R WCI  29
MANASSAS*      FAIR      20  16  84 CALM      30.14R
GAITHERSBURG*  FAIR      24  13  62 CALM      30.11S

$$

MDZ006>007-011-014-190500-
BALTIMORE METRO

CITY           SKY/WX    TMP DP  RH WIND       PRES   REMARKS
BWI AIRPORT    FAIR      31  10  41 W5        30.11S WCI  26
MD SCIENCE CTR   N/A     35  10  35 MISG      30.12R
MARTIN STATE   FAIR      25  19  80 CALM      30.14R
ANNAPOLIS      FAIR      35  15  44 N3        30.12S
FORT MEADE*    FAIR      23  18  80 CALM      30.15S

$$

MDZ012-015-019>023-190500-
MARYLAND EASTERN SHORE

CITY           SKY/WX    TMP DP  RH WIND       PRES   REMARKS
OCEAN CITY     FAIR      30  18  60 W6        30.14  WCI  24
SALISBURY      FAIR      29  18  63 SW5       30.13R WCI  24
BAY BRIDGE AP* FAIR      34  12  40 NW6       30.13R WCI  29
CAMBRIDGE*       N/A     27  16  63 SW5       30.13S WCI  21
EASTON*        FAIR      28  16  62 CALM      30.16S

$$

MDZ017>025-190500-
SOUTHERN MARYLAND

CITY           SKY/WX    TMP DP  RH WIND       PRES   REMARKS
PATUXENT RIVER CLEAR     28  15  58 W6        30.14R WCI  22
ST INIGOES     FAIR      27  19  72 CALM      30.14R
LEONARDTOWN*   FAIR      28  18  64 CALM      30.16R

$$

MDZ003>005-190500-
NORTH CENTRAL MARYLAND

CITY           SKY/WX    TMP DP  RH WIND       PRES   REMARKS
FREDERICK*     FAIR      32   3  29 S3        30.15R
HAGERSTOWN APT FAIR      33  12  41 W7        30.09S WCI  27
WESTMINSTER*   FAIR      30  10  43 W5        30.08S WCI  25

$$

MDZ501>502-190500-
WESTERN MARYLAND

CITY           SKY/WX    TMP DP  RH WIND       PRES   REMARKS
OAKLAND*       FAIR      19   7  58 SW15G25   30.06F WCI   5
CUMBERLAND*    FAIR      32  10  40 SE3       30.17S

$$

VAZ025>031-190500-
SHENANDOAH VALLEY

CITY           SKY/WX    TMP DP  RH WIND       PRES   REMARKS
WINCHESTER*    FAIR      36   7  30 SW6       30.12S WCI  31
FRONT ROYAL*   FAIR      36   9  32 SE6       30.10S WCI  31
LURAY*         FAIR      41   3  20 S7        30.11S
NEW MARKET*    FAIR      36   4  26 CALM      30.12R
STAUNTON*      FAIR      30   8  40 W5        30.15R WCI  25
WAYNESBORO*    FAIR      35   0  22 SW8       30.12R WCI  29

$$

WVZ021-048>050-054>055-190500-
EASTERN WEST VIRGINIA PANHANDLE

CITY           SKY/WX    TMP DP  RH WIND       PRES   REMARKS
MARTINSBURG    FAIR      33   9  36 S5        30.10S WCI  29
PETERSBURG*    FAIR      37  10  32 W13G24    30.15F WCI  29

$$

VAZ036>039-050-190500-
CENTRAL FOOTHILLS

CITY           SKY/WX    TMP DP  RH WIND       PRES   REMARKS
CHARLOTTESVILL FAIR      35  10  35 SE3       30.11R
CULPEPER*      FAIR      24  13  62 CALM      30.13R
ORANGE*        FAIR      27  14  59 CALM      30.12R
GORDONSVILLE*  FAIR      26  16  65 CALM      30.11R
WARRENTON*     FAIR      20  12  71 CALM      30.12R

$$

VAZ055>057-190500-
NORTH AND CENTRAL PIEDMONT

CITY           SKY/WX    TMP DP  RH WIND       PRES   REMARKS
FREDERICKSBRG* FAIR      24  19  78 CALM      30.14R
STAFFORD*      FAIR      24  16  69 CALM      30.18R

$$

NCZ024-NYZ072-PAZ021-071-VAZ022-071-190500-
OTHER REGIONAL OBSERVATIONS

CITY           SKY/WX    TMP DP  RH WIND       PRES   REMARKS
NEW YORK CITY  FAIR      26  12  55 VRB5      30.09F WCI  20
PHILADELPHIA   FAIR      28  11  48 CALM      30.12S
PITTSBURGH     FAIR      25  10  53 SW9G18    30.11F WCI  15
ROANOKE        FAIR      34   7  32 SW7       30.20R WCI  28
RICHMOND       FAIR      32  15  49 SW6       30.15R WCI  26
RALEIGH        FAIR      23  20  88 SW7       30.25R WCI  15

$$

ANZ530>537-190500-
MARINE OBSERVATIONS

STATION/POSITION TIME  TEMP    WIND        PRES
                       AIR SEA DIR/SP/G
                 (UTC) (F)     (DEG/KT/KT) (MB)
THOMAS PT LIGHT  0400   36 31  270/  6/  7   N/A
BALT KEY BRIDGE  0348   35     240/  2/  2 1020.1R
COVE POINT       0348   36     280/  9/ 12 1020.9R
LEWISETTA        0348   33 31  240/  3/  4 1021.2R
SOLOMONS ISLAND  0348   31 34  320/  3/  4 1020.5R
PINEY POINT      0336          320/  3/  4   N/A

$$




USA.gov is the U.S. government's official web portal to all federal, state and local government web resources and services.